Weather History for New Orleans NAS, LA

Change the Weather History Date:

Thursday, January 17, 2013

  Actual Average Record
Temperature  
Mean Temperature 46 °F -  
Max Temperature 53 °F 60 °F 78 °F (2012)
Min Temperature 39 °F 43 °F 27 °F (1997)
Degree Days  
Heating Degree Days 19    
Moisture  
Dew Point 32 °F    
Average Humidity 61    
Maximum Humidity 79    
Minimum Humidity 40    
Precipitation  
Precipitation 0.00 in - - ()
Sea Level Pressure  
Sea Level Pressure 30.29 in    
Wind  
Wind Speed 9 mph (NNW)    
Max Wind Speed 14 mph    
Max Gust Speed 23 mph    
Visibility 10 miles    
Events      
Averages and records for this station are not official NWS values.
T = Trace of Precipitation, MM = Missing Value Source: NWS Daily Summary

Daily Weather History Graph

Daily Weather History Graph

Search for Another Location

Airport:

Trip Planner

Search our weather history database for the weather conditions in past years. The results will help you decide how hot, cold, wet, or windy it might be!

Date:

Astronomy

Jan. 17, 2013 Rise Set
Actual Time 6:56 AM CST 5:25 PM CST
Civil Twilight 6:30 AM CST 5:50 PM CST
Nautical Twilight 6:01 AM CST 6:19 PM CST
Astronomical Twilight 5:32 AM CST 6:48 PM CST
Moon 10:35 AM CST (1/17) 11:41 PM CST (1/17)
Length of Visible Light 11h 20m
Length of Day
10h 29m
Waxing Crescent, 38% of the Moon is Illuminated
Jan 17
Waxing Crescent
Jan 18
First Quarter
Jan 26
Full
Feb 3
Last Quarter
Feb 10
New

Hourly Weather History & Observations

Time (CST) Temp. Windchill Dew Point Humidity Pressure Visibility Wind Dir Wind Speed Gust Speed Precip Events Conditions
12:55 AM 41.0 °F 35.2 °F 35.1 °F 79% 30.17 in 10.0 mi WNW 9.2 mph 17.3 mph N/A   Overcast
1:38 AM 41.0 °F 34.7 °F 33.8 °F 76% 30.18 in 10.0 mi WNW 10.4 mph 17.3 mph N/A   Overcast
1:55 AM 41.0 °F 34.7 °F 34.0 °F 76% 30.19 in 10.0 mi WNW 10.4 mph 19.6 mph N/A   Overcast
2:28 AM 41.0 °F 34.3 °F 33.8 °F 76% 30.19 in 10.0 mi NW 11.5 mph 19.6 mph N/A   Overcast
2:55 AM 41.0 °F 37.1 °F 34.0 °F 76% 30.19 in 10.0 mi Variable 5.8 mph - N/A   Overcast
3:02 AM 41.0 °F 38.0 °F 33.8 °F 76% 30.19 in 10.0 mi Variable 4.6 mph - N/A   Overcast
3:55 AM 41.0 °F 36.4 °F 33.1 °F 73% 30.20 in 10.0 mi WNW 6.9 mph - N/A   Scattered Clouds
4:55 AM 41.0 °F 37.1 °F 33.1 °F 73% 30.22 in 10.0 mi Variable 5.8 mph 17.3 mph N/A   Overcast
5:55 AM 39.9 °F 35.8 °F 32.0 °F 73% 30.24 in 10.0 mi Variable 5.8 mph 18.4 mph N/A   Mostly Cloudy
6:08 AM 39.2 °F 33.0 °F 32.0 °F 75% 30.25 in 10.0 mi NW 9.2 mph 21.9 mph N/A   Scattered Clouds
6:55 AM 39.0 °F 35.7 °F 32.0 °F 76% 30.27 in 10.0 mi WNW 4.6 mph - N/A   Mostly Cloudy
7:55 AM 41.0 °F 36.4 °F 32.0 °F 70% 30.30 in 10.0 mi NNW 6.9 mph 17.3 mph N/A   Mostly Cloudy
8:21 AM 42.8 °F 37.0 °F 32.0 °F 66% 30.30 in 10.0 mi NW 10.4 mph 20.7 mph N/A   Scattered Clouds
8:55 AM 44.1 °F 39.0 °F 32.0 °F 63% 30.30 in 10.0 mi NNW 9.2 mph 16.1 mph N/A   Scattered Clouds
9:55 AM 46.9 °F - 32.0 °F 56% 30.32 in 10.0 mi WNW 10.4 mph - N/A   Partly Cloudy
10:55 AM 48.9 °F - 30.9 °F 50% 30.32 in 10.0 mi WNW 11.5 mph 20.7 mph N/A   Partly Cloudy
11:55 AM 51.1 °F - 30.0 °F 44% 30.30 in 10.0 mi NW 8.1 mph 19.6 mph N/A   Partly Cloudy
12:55 PM 51.1 °F - 30.0 °F 44% 30.26 in 10.0 mi NW 13.8 mph 20.7 mph N/A   Partly Cloudy
1:55 PM 51.1 °F - 28.9 °F 43% 30.26 in 10.0 mi NNW 12.7 mph 23.0 mph N/A   Clear
2:55 PM 53.1 °F - 28.9 °F 40% 30.27 in 10.0 mi NW 8.1 mph 20.7 mph N/A   Clear
3:55 PM 53.1 °F - 30.9 °F 43% 30.28 in 10.0 mi NNW 9.2 mph - N/A   Partly Cloudy
4:55 PM 53.1 °F - 32.0 °F 45% 30.31 in 10.0 mi North 9.2 mph - N/A   Scattered Clouds
5:55 PM 51.1 °F - 33.1 °F 50% 30.34 in 10.0 mi North 4.6 mph - N/A   Partly Cloudy
6:55 PM 50.0 °F - 34.0 °F 54% 30.38 in 10.0 mi North 5.8 mph - N/A   Clear
7:55 PM 48.9 °F - 33.1 °F 54% 30.40 in 10.0 mi North 5.8 mph - N/A   Clear
8:55 PM 50.0 °F - 32.0 °F 50% 30.41 in 10.0 mi North 8.1 mph - N/A   Clear
9:55 PM 48.9 °F - 33.1 °F 54% 30.43 in 10.0 mi North 6.9 mph - N/A   Clear
10:55 PM 48.0 °F - 33.1 °F 56% 30.43 in 10.0 mi North 6.9 mph - N/A   Clear
11:55 PM 46.9 °F - 34.0 °F 61% 30.43 in 10.0 mi North 5.8 mph - N/A   Clear